CW9540 Weather Reports


Display with metric or nautical units.
time (UTC)temp
F
wind
direction
speed
MPH
gust
MPH
rain 1hr
in
rain 24hr
in
rain mn
in
humidity
%
barometer
mb
20260904144004 73 148 1.0 2.0 0.00 0.73 0.00 83 1012.0
20260904143503 73 229 1.0 3.0 0.00 0.73 0.00 85 1012.1
20260904143057 72 178 0.0 3.0 0.00 0.73 0.00 85 1013.9
20260904143003 72 181 1.0 2.0 0.00 0.73 0.00 85 1012.2
20260904142504 72 216 1.0 3.0 0.00 0.73 0.00 86 1012.4
20260904142004 71 96 1.0 3.0 0.00 0.73 0.00 88 1012.4
20260904141555 70 145 1.0 5.0 0.00 0.73 0.00 88 1014.2
20260904141504 71 156 1.0 3.0 0.00 0.73 0.00 88 1012.3
20260904141004 70 238 2.0 5.0 0.00 0.73 0.00 90 1012.4
20260904140504 70 174 1.0 3.0 0.00 0.73 0.00 92 1012.3
20260904140104 69 161 2.0 4.0 0.00 0.73 0.00 92 1014.1
20260904140004 69 180 2.0 3.0 0.00 0.73 0.00 93 1012.3
20260904135504 69 146 0.0 2.0 0.00 0.73 0.00 94 1012.6
20260904135003 69 307 1.0 2.0 0.00 0.73 0.00 94 1012.5
20260904134603 68 0 0.0 4.0 0.00 0.73 0.00 94 1014.3
20260904134503 68 168 1.0 2.0 0.00 0.73 0.00 94 1012.5
20260904133503 68 223 1.0 2.0 0.00 0.73 0.00 96 1012.4
20260904133057 67 0 1.0 3.0 0.00 0.73 0.00 95 1014.3
20260904133003 68 224 2.0 3.0 0.00 0.73 0.00 96 1012.4
20260904132503 68 261 2.0 3.0 0.00 0.73 0.00 96 1012.5
20260904132003 67 205 1.0 2.0 0.00 0.73 0.00 96 1012.4
20260904131604 67 169 1.0 4.0 0.00 0.73 0.00 95 1014.2
20260904131503 67 5 1.0 3.0 0.00 0.73 0.00 96 1012.4
20260904131004 67 159 1.0 3.0 0.00 0.73 0.00 96 1012.7
20260904130053 66 206 0.0 3.0 0.00 0.73 0.00 96 1014.3
20260904130003 67 90 1.0 2.0 0.00 0.73 0.00 96 1012.6
20260904125503 66 100 1.0 3.0 0.00 0.73 0.00 96 1012.6
20260904125003 66 193 1.0 3.0 0.00 0.73 0.00 96 1012.5
20260904124600 66 117 0.0 4.0 0.00 0.73 0.00 96 1014.3
20260904124503 66 102 0.0 2.0 0.00 0.73 0.00 96 1012.5
20260904124004 66 250 2.0 3.0 0.00 0.73 0.00 96 1012.5
20260904123503 66 232 1.0 3.0 0.00 0.73 0.00 96 1012.4
20260904123056 65 178 0.0 3.0 0.00 0.73 0.00 96 1014.0
20260904123004 66 187 1.0 2.0 0.00 0.73 0.00 96 1012.2
20260904122504 66 150 1.0 3.0 0.00 0.73 0.00 96 1012.3
20260904121552 65 0 0.0 2.0 0.00 0.73 0.00 96 1014.0
20260904121504 66 169 0.0 2.0 0.00 0.73 0.00 96 1012.3
20260904121003 65 157 1.0 2.0 0.00 0.73 0.00 96 1012.3
20260904120503 65 166 1.0 2.0 0.00 0.73 0.00 96 1012.3
20260904120100 65 0 0.0 2.0 0.00 0.73 0.00 96 1014.0
20260904120003 65 70 0.0 2.0 0.00 0.73 0.00 96 1012.2
20260904115506 65 187 1.0 2.0 0.00 0.73 0.00 96 1012.2
20260904115003 65 172 1.0 2.0 0.00 0.73 0.00 96 1012.4
20260904114553 64 190 1.0 2.0 0.00 0.73 0.00 96 1014.0
20260904114503 64 178 1.0 2.0 0.00 0.73 0.00 96 1012.3
20260904114004 64 140 1.0 1.0 0.00 0.73 0.00 96 1012.4
20260904113504 64 83 1.0 2.0 0.00 0.73 0.00 96 1012.5
20260904113055 64 0 0.0 1.0 0.00 0.73 0.00 96 1014.1
20260904113004 64 94 0.0 1.0 0.00 0.73 0.00 96 1012.3
20260904112003 64 120 0.0 1.0 0.00 0.73 0.00 96 1012.3
20260904111601 64 161 0.0 2.0 0.00 0.73 0.00 95 1014.0
20260904111503 64 182 1.0 2.0 0.00 0.73 0.00 96 1012.3
20260904111003 64 170 0.0 1.0 0.00 0.73 0.00 96 1012.2
20260904110503 64 84 0.0 1.0 0.00 0.73 0.00 96 1012.2
20260904110003 64 184 0.0 1.0 0.00 0.73 0.00 96 1012.1
20260904105503 64 229 0.0 1.0 0.00 0.73 0.00 96 1012.2
20260904104558 64 197 0.0 1.0 0.00 0.73 0.00 95 1013.7
20260904104503 64 203 0.0 1.0 0.00 0.73 0.00 96 1011.9
20260904104003 64 96 0.0 1.0 0.00 0.73 0.00 96 1012.0
20260904103503 64 163 1.0 1.0 0.00 0.73 0.00 96 1012.0
20260904103057 64 250 0.0 1.0 0.00 0.73 0.00 95 1013.8
20260904103003 64 184 0.0 1.0 0.00 0.73 0.00 96 1012.0
20260904102003 65 115 0.0 1.0 0.00 0.73 0.00 96 1011.6
20260904101559 64 0 0.0 2.0 0.00 0.73 0.00 95 1013.4
20260904101503 65 75 0.0 1.0 0.00 0.73 0.00 96 1011.5
20260904100504 65 179 1.0 2.0 0.00 0.73 0.00 96 1011.6
20260904100108 65 0 0.0 1.0 0.00 0.73 0.00 95 1013.5
20260904100004 65 95 0.0 1.0 0.00 0.73 0.00 96 1011.6
20260904094605 65 145 0.0 1.0 0.00 0.73 0.00 95 1013.4
20260904094503 65 93 0.0 1.0 0.00 0.73 0.00 96 1011.5
20260904094003 65 99 0.0 1.0 0.00 0.73 0.00 96 1011.5
20260904093051 65 0 0.0 2.0 0.00 0.73 0.00 95 1013.4
20260904093004 65 103 0.0 2.0 0.00 0.73 0.00 96 1011.5
20260904092504 65 113 0.0 1.0 0.00 0.73 0.00 96 1011.4
20260904091606 65 178 0.0 2.0 0.00 0.73 0.00 95 1013.3
20260904091503 66 176 1.0 1.0 0.00 0.73 0.00 96 1011.4
20260904091003 66 151 0.0 1.0 0.00 0.73 0.00 96 1011.3
20260904090503 66 177 1.0 2.0 0.00 0.73 0.00 96 1011.3
20260904090059 65 0 0.0 1.0 0.00 0.73 0.00 95 1013.1
20260904090003 66 75 1.0 1.0 0.00 0.73 0.00 96 1011.1
20260904085004 66 164 0.0 1.0 0.00 0.73 0.00 96 1011.1
20260904084553 66 0 0.0 2.0 0.00 0.73 0.00 95 1013.0
20260904084504 66 105 0.0 2.0 0.00 0.73 0.00 96 1011.1
20260904084004 66 178 1.0 2.0 0.00 0.73 0.00 96 1011.1
20260904083503 66 176 1.0 2.0 0.00 0.73 0.00 96 1011.1
20260904083059 66 178 0.0 2.0 0.00 0.73 0.00 95 1012.9
20260904083003 66 156 0.0 1.0 0.00 0.73 0.00 96 1011.0
20260904082503 66 177 1.0 2.0 0.00 0.73 0.00 96 1010.9
20260904082004 66 90 0.0 1.0 0.00 0.73 0.00 96 1010.8
20260904081552 66 0 0.0 2.0 0.00 0.73 0.00 95 1012.5
20260904081504 66 68 0.0 2.0 0.00 0.73 0.00 96 1010.7
20260904081004 66 92 0.0 2.0 0.00 0.73 0.00 96 1010.7
20260904080504 66 106 1.0 2.0 0.00 0.73 0.00 96 1010.7
20260904080057 66 178 0.0 1.0 0.00 0.73 0.00 95 1012.4
20260904080003 66 180 1.0 1.0 0.00 0.73 0.00 96 1010.8
20260904075503 66 177 0.0 1.0 0.00 0.73 0.00 96 1010.7
20260904074553 66 193 0.0 2.0 0.00 0.73 0.00 95 1012.4
20260904074504 66 182 0.0 1.0 0.00 0.73 0.00 96 1010.7
20260904074004 66 126 1.0 2.0 0.00 0.73 0.00 96 1010.7
20260904073503 66 187 1.0 2.0 0.00 0.73 0.00 96 1010.7
20260904073232 66 145 0.0 2.0 0.00 0.73 0.00 95 1012.4
20260904073003 66 173 1.0 1.0 0.00 0.73 0.00 95 1010.7
20260904072004 67 194 0.0 1.0 0.00 0.73 0.00 96 1010.6
20260904071602 67 0 0.0 3.0 0.00 0.73 0.00 95 1012.2
20260904070503 68 155 0.0 1.0 0.00 0.73 0.00 96 1010.5
20260904070108 67 178 0.0 1.0 0.00 0.73 0.00 95 1012.3
20260904070003 68 104 0.0 1.0 0.00 0.73 0.00 96 1010.5
20260904065503 68 96 0.0 1.0 0.00 0.73 0.00 96 1010.5
20260904064608 68 0 0.0 1.0 0.00 0.73 0.00 95 1012.1
20260904064503 68 86 0.0 1.0 0.00 0.73 0.00 96 1010.4
20260904064004 69 120 0.0 1.0 0.00 0.73 0.00 96 1010.4
20260904063504 69 79 1.0 1.0 0.00 0.73 0.00 96 1010.5
20260904063108 68 0 0.0 1.0 0.00 0.73 0.00 95 1012.4
20260904063004 69 134 0.0 1.0 0.00 0.73 0.00 96 1010.6
20260904062504 69 93 0.0 1.0 0.00 0.73 0.00 96 1010.6
20260904062003 69 66 0.0 1.0 0.00 0.73 0.00 96 1010.6
20260904061600 69 0 0.0 1.0 0.00 0.73 0.00 95 1012.4
20260904061503 69 71 0.0 1.0 0.00 0.73 0.00 96 1010.5
20260904061004 69 64 0.0 1.0 0.00 0.73 0.00 96 1010.5
20260904060107 69 178 0.0 1.0 0.00 0.73 0.00 95 1012.5
20260904060004 69 192 0.0 1.0 0.00 0.73 0.00 96 1010.8
20260904055504 69 132 0.0 1.0 0.00 0.73 0.00 96 1010.7
20260904055003 69 145 0.0 1.0 0.00 0.73 0.00 96 1010.6
20260904054616 69 0 0.0 1.0 0.00 0.73 0.00 95 1012.5
20260904054503 69 63 0.0 0.0 0.00 0.73 0.00 96 1010.8
20260904054003 69 144 0.0 1.0 0.00 0.73 0.00 96 1010.8
20260904053503 69 119 0.0 1.0 0.00 0.73 0.00 96 1010.8
20260904053055 69 0 0.0 2.0 0.00 0.73 0.00 95 1012.7
20260904053004 69 211 0.0 1.0 0.00 0.73 0.00 96 1010.9
20260904052504 69 181 1.0 2.0 0.00 0.73 0.00 96 1010.8
20260904052004 69 127 0.0 1.0 0.00 0.73 0.00 96 1010.8
20260904051553 69 0 0.0 2.0 0.00 0.73 0.00 95 1012.8
20260904051504 69 139 0.0 1.0 0.00 0.73 0.00 96 1010.9
20260904051003 70 83 0.0 2.0 0.00 0.73 0.00 96 1010.8
20260904050055 69 0 0.0 1.0 0.00 0.73 0.00 95 1012.9
20260904050004 70 132 0.0 1.0 0.00 0.73 0.00 96 1011.0
20260904045504 70 75 0.0 1.0 0.00 0.73 0.00 96 1011.1
20260904045004 70 242 0.0 1.0 0.00 0.73 0.00 96 1011.1
20260904044553 69 0 0.0 2.0 0.00 0.73 0.00 95 1012.9
20260904044503 70 116 0.0 1.0 0.00 0.73 0.00 96 1011.0
20260904043504 70 210 1.0 2.0 0.01 0.73 0.00 96 1010.9
20260904043054 70 250 0.0 2.0 0.01 0.73 0.00 95 1012.9
20260904043004 70 186 1.0 2.0 0.01 0.73 0.00 96 1011.0
20260904042504 70 245 1.0 2.0 0.01 0.73 0.00 96 1011.1
20260904042004 70 205 1.0 2.0 0.01 0.73 0.00 96 1011.0
20260904041604 70 223 0.0 2.0 0.01 0.73 0.00 95 1012.7
20260904041503 70 222 1.0 2.0 0.01 0.73 0.00 96 1010.9
20260904041004 70 274 1.0 2.0 0.01 0.73 0.00 96 1010.8
20260904040503 70 173 1.0 2.0 0.01 0.73 0.00 96 1010.8
20260904040055 69 0 1.0 3.0 0.01 0.73 0.00 95 1012.7
20260904040003 70 208 1.0 3.0 0.01 0.73 0.00 96 1010.8
20260904035504 70 178 1.0 3.0 0.01 0.73 0.73 96 1010.7
20260904035004 70 200 1.0 2.0 0.01 0.73 0.73 96 1010.9
20260904034553 69 213 1.0 2.0 0.01 0.73 0.73 95 1012.7
20260904034504 70 199 1.0 2.0 0.01 0.73 0.73 96 1010.9
20260904034004 70 203 1.0 2.0 0.00 0.72 0.72 96 1010.8
20260904033059 69 0 0.0 2.0 0.00 0.72 0.72 95 1012.5
20260904033003 70 201 1.0 2.0 0.00 0.72 0.72 96 1010.7
20260904032503 70 240 1.0 2.0 0.00 0.72 0.72 96 1010.6
20260904032004 70 235 1.0 2.0 0.00 0.72 0.72 96 1010.6
20260904031600 69 0 0.0 2.0 0.00 0.72 0.72 95 1012.2
20260904031003 70 180 1.0 2.0 0.00 0.72 0.72 95 1010.4
20260904030103 69 234 0.0 2.0 0.00 0.72 0.72 95 1012.2
20260904030003 70 275 0.0 1.0 0.00 0.72 0.72 95 1010.5
20260904025503 70 156 0.0 2.0 0.00 0.74 0.72 95 1010.4
20260904025004 70 163 0.0 1.0 0.00 0.79 0.72 95 1010.5
20260904024559 69 0 0.0 1.0 0.00 0.84 0.72 95 1012.3
20260904024504 70 144 1.0 1.0 0.00 0.82 0.72 95 1010.6
20260904023504 70 80 0.0 1.0 0.00 0.82 0.72 95 1010.5
20260904023104 70 63 0.0 2.0 0.00 0.84 0.72 95 1012.3
20260904023004 70 51 0.0 1.0 0.00 0.82 0.72 95 1010.5
20260904022503 70 180 1.0 2.0 0.06 0.83 0.72 95 1010.7
20260904022003 70 164 0.0 1.0 0.17 0.83 0.72 95 1010.8
20260904021555 70 0 0.0 2.0 0.25 0.84 0.72 95 1012.7
20260904021503 70 353 0.0 1.0 0.30 0.83 0.72 95 1010.8
20260904021003 70 73 0.0 2.0 0.36 0.83 0.72 95 1010.8
20260904020504 70 242 1.0 2.0 0.38 0.83 0.72 95 1011.0
20260904020105 70 340 1.0 2.0 0.43 0.84 0.72 95 1012.5
20260904020004 70 334 1.0 2.0 0.48 0.84 0.72 95 1010.7
20260904015504 70 152 1.0 2.0 0.51 0.84 0.72 95 1010.4
20260904014619 70 108 0.0 4.0 0.52 0.87 0.72 94 1012.5
20260904014503 70 141 0.0 2.0 0.53 0.85 0.72 95 1010.7
20260904014004 70 287 1.0 3.0 0.53 0.86 0.72 95 1010.7
20260904013117 70 190 0.0 3.0 0.52 0.87 0.72 94 1012.4
20260904013004 71 175 0.0 2.0 0.53 0.86 0.72 94 1010.5
20260904012504 71 45 1.0 3.0 0.47 0.80 0.66 94 1010.6
20260904012004 72 33 2.0 3.0 0.36 0.69 0.55 95 1010.7
20260904011602 72 1 1.0 3.0 0.26 0.60 0.45 94 1012.6
20260904011503 73 17 1.0 3.0 0.23 0.56 0.42 95 1010.7
20260904011003 73 19 1.0 2.0 0.17 0.51 0.36 95 1010.6
20260904010114 73 39 0.0 2.0 0.08 0.42 0.27 95 1012.2
20260904010004 73 8 1.0 2.0 0.05 0.39 0.24 95 1010.3
20260904005504 73 31 1.0 2.0 0.02 0.37 0.21 95 1010.3
20260904005003 73 314 0.0 2.0 0.00 0.36 0.19 95 1010.0
20260904004554 72 0 0.0 1.0 0.00 0.56 0.19 94 1011.8
20260904004503 73 51 0.0 1.0 0.00 0.36 0.19 95 1010.0
20260904004004 73 83 0.0 1.0 0.00 0.37 0.19 94 1010.0
20260904003103 72 347 0.0 2.0 0.00 0.56 0.19 94 1012.0
20260904003004 73 332 1.0 2.0 0.00 0.38 0.19 95 1010.0
20260904002504 73 176 1.0 2.0 0.00 0.39 0.19 94 1009.7
20260904002003 73 121 0.0 1.0 0.00 0.40 0.19 94 1010.0
20260904001558 73 0 0.0 2.0 0.00 0.56 0.19 94 1012.0
20260904001003 73 196 1.0 2.0 0.00 0.44 0.19 94 1010.2
20260904000503 73 331 0.0 0.0 0.00 0.47 0.19 94 1010.1
20260904000100 73 0 0.0 1.0 0.00 0.56 0.19 94 1012.0
20260904000003 73 125 0.0 1.0 0.00 0.57 0.19 94 1010.2
20260903235503 73 6 0.0 1.0 0.00 0.85 0.19 94 1010.1
20260903235004 73 66 1.0 2.0 0.00 1.03 0.19 94 1010.0
20260903234552 73 157 1.0 2.0 0.00 2.14 0.19 94 1011.9
20260903234504 74 173 1.0 2.0 0.00 1.32 0.19 94 1010.0
20260903234004 74 162 0.0 1.0 0.00 1.62 0.19 94 1010.1
20260903233059 73 0 0.0 2.0 0.00 2.14 0.19 93 1012.0
20260903233004 74 32 1.0 2.0 0.00 1.72 0.19 94 1010.1
20260903232504 74 160 0.0 1.0 0.00 1.72 0.19 94 1010.1
20260903231613 73 46 0.0 2.0 0.00 2.14 0.19 93 1012.1
20260903231003 74 177 1.0 2.0 0.00 1.74 0.19 93 1010.1
20260903230003 74 167 1.0 2.0 0.00 2.14 0.19 93 1010.0
20260903225503 74 202 0.0 1.0 0.00 2.14 0.19 94 1010.0
20260903225003 74 100 0.0 1.0 0.00 2.14 0.19 94 1010.0
20260903224602 74 0 0.0 2.0 0.00 2.14 0.19 93 1011.8
20260903224004 75 189 1.0 2.0 0.00 2.14 0.19 93 1010.0
20260903223504 75 139 0.0 1.0 0.00 2.14 0.19 93 1009.7
20260903223108 74 0 0.0 2.0 0.00 2.14 0.19 93 1011.6
20260903222504 75 111 0.0 1.0 0.00 2.14 0.19 94 1009.7
20260903222004 75 249 0.0 1.0 0.00 2.14 0.19 93 1010.0
20260903221554 74 0 0.0 1.0 0.00 2.14 0.19 93 1011.7
20260903221504 75 132 0.0 1.0 0.00 2.14 0.19 94 1009.7
20260903220503 75 119 0.0 1.0 0.00 2.14 0.19 94 1009.6
20260903220056 74 0 0.0 2.0 0.00 2.14 0.19 93 1011.5
20260903220003 75 164 0.0 1.0 0.01 2.14 0.19 94 1009.5
20260903215503 74 188 1.0 2.0 0.04 2.14 0.19 94 1009.7
20260903215004 74 114 0.0 1.0 0.09 2.14 0.19 94 1009.8
20260903214600 74 0 0.0 1.0 0.09 2.14 0.19 93 1011.6
20260903214504 74 33 0.0 1.0 0.10 2.14 0.19 94 1009.9
20260903214004 74 133 0.0 1.0 0.10 2.14 0.19 94 1009.9
20260903213504 74 83 0.0 2.0 0.10 2.14 0.19 93 1009.9
20260903213100 73 135 0.0 2.0 0.10 2.14 0.19 93 1011.7
20260903212003 74 7 0.0 2.0 0.11 2.14 0.19 92 1009.9
20260903211607 74 314 0.0 2.0 0.17 2.14 0.19 92 1011.6
20260903211503 74 286 0.0 1.0 0.18 2.14 0.19 92 1009.9
20260903211003 74 136 1.0 2.0 0.18 2.14 0.19 92 1009.8
20260903210503 74 311 1.0 3.0 0.18 2.14 0.19 91 1009.9
20260903210057 74 178 0.0 2.0 0.18 2.14 0.19 91 1011.6
20260903210003 75 217 1.0 2.0 0.17 2.13 0.18 92 1009.9
20260903205004 76 29 0.0 2.0 0.09 2.05 0.10 91 1009.9
20260903204555 75 0 0.0 2.0 0.09 2.05 0.10 90 1011.8
20260903204504 76 353 1.0 2.0 0.08 2.04 0.09 91 1010.0
20260903204004 76 169 0.0 2.0 0.08 2.04 0.09 92 1009.9
20260903203503 76 59 0.0 2.0 0.08 2.04 0.09 91 1009.8
20260903203057 76 28 0.0 3.0 0.08 2.04 0.09 89 1011.8
20260903203004 76 328 0.0 3.0 0.08 2.04 0.09 90 1009.8
20260903202503 78 342 1.0 2.0 0.08 2.04 0.09 85 1010.0
20260903202003 79 77 1.0 2.0 0.07 2.03 0.08 83 1010.0
20260903201602 79 46 1.0 3.0 0.00 1.96 0.01 80 1011.9
20260903201503 80 6 1.0 3.0 0.00 1.96 0.01 80 1009.9
20260903201004 81 29 1.0 2.0 0.00 1.96 0.01 81 1009.9
20260903200503 81 353 1.0 3.0 0.00 1.96 0.01 78 1009.9
20260903200055 81 72 1.0 3.0 0.00 1.96 0.01 77 1011.7
20260903200003 82 5 1.0 2.0 0.00 1.96 0.01 77 1009.8
20260903195003 82 6 1.0 2.0 0.00 1.96 0.01 77 1009.7
20260903194554 82 314 0.0 2.0 0.00 1.96 0.01 74 1011.7
20260903194004 82 43 1.0 2.0 0.00 1.96 0.01 75 1009.7
20260903193106 82 234 1.0 4.0 0.00 1.96 0.01 71 1011.9
20260903193004 83 162 1.0 3.0 0.00 1.96 0.01 72 1010.0
20260903192504 83 33 1.0 3.0 0.00 1.96 0.01 75 1010.0
20260903192003 83 302 3.0 6.0 0.00 1.96 0.01 71 1010.0
20260903191552 83 149 1.0 6.0 0.00 1.96 0.01 69 1011.8
20260903191503 84 244 1.0 3.0 0.00 1.96 0.01 70 1009.8
20260903191003 85 348 2.0 6.0 0.00 1.96 0.01 66 1009.7
20260903190504 86 274 2.0 6.0 0.00 1.96 0.01 67 1009.8
20260903190106 87 227 1.0 4.0 0.00 1.96 0.01 64 1011.7
20260903185503 84 0 1.0 3.0 0.00 1.96 0.01 70 1009.9
20260903185003 83 163 1.0 3.0 0.00 1.96 0.01 72 1010.0
20260903184604 82 100 0.0 3.0 0.00 1.96 0.01 73 1012.0
20260903184503 82 107 1.0 2.0 0.00 1.96 0.01 74 1010.2
20260903184003 82 63 1.0 3.0 0.00 1.96 0.01 73 1010.2
20260903183504 82 261 1.0 2.0 0.00 1.96 0.01 71 1010.1
20260903183107 82 324 1.0 6.0 0.00 1.96 0.01 68 1012.1
20260903183004 83 9 2.0 6.0 0.00 1.96 0.01 68 1010.2
20260903182503 85 247 2.0 6.0 0.00 1.96 0.01 65 1010.3
20260903182004 87 182 3.0 7.0 0.00 1.96 0.01 65 1010.3
20260903181600 87 213 1.0 5.0 0.00 1.96 0.01 66 1012.1
20260903181503 86 93 1.0 3.0 0.00 1.96 0.01 67 1010.4
20260903181003 84 355 2.0 5.0 0.00 1.96 0.01 68 1010.3
20260903180503 85 247 2.0 6.0 0.00 1.96 0.01 63 1010.3
20260903180057 84 197 3.0 7.0 0.00 1.96 0.01 63 1012.1
20260903180003 85 226 3.0 6.0 0.00 1.96 0.01 64 1010.3
20260903175503 86 64 1.0 3.0 0.00 1.96 0.01 67 1010.3
20260903175004 83 329 1.0 3.0 0.00 1.96 0.01 67 1010.4
20260903174555 84 223 1.0 4.0 0.00 1.96 0.01 66 1012.2
20260903174503 84 225 2.0 3.0 0.00 1.96 0.01 67 1010.5
20260903174003 84 286 1.0 3.0 0.00 1.96 0.01 67 1010.5
20260903173504 84 246 2.0 3.0 0.00 1.96 0.01 63 1010.5
20260903173058 84 0 0.0 6.0 0.00 1.96 0.01 67 1012.2
20260903173004 83 73 1.0 3.0 0.00 1.96 0.01 68 1010.4
20260903172504 84 247 3.0 6.0 0.00 1.96 0.01 63 1010.5
20260903172004 84 228 1.0 3.0 0.00 1.96 0.01 64 1010.5
20260903171604 84 170 1.0 4.0 0.00 1.96 0.01 62 1012.3
20260903171503 84 146 2.0 3.0 0.00 1.96 0.01 64 1010.6
20260903171004 85 307 1.0 3.0 0.00 1.96 0.01 68 1010.6
20260903170504 85 223 1.0 3.0 0.00 1.96 0.01 64 1010.6
20260903170004 84 78 1.0 2.0 0.01 1.96 0.01 65 1010.6
20260903165503 84 2 1.0 2.0 0.01 1.96 0.01 65 1010.7
20260903165003 82 61 1.0 2.0 0.01 1.96 0.01 67 1010.7
20260903164608 82 269 0.0 4.0 0.01 1.96 0.01 63 1012.4
20260903164503 83 225 1.0 2.0 0.01 1.96 0.01 65 1010.6
20260903164004 83 220 1.0 3.0 0.01 1.96 0.01 67 1010.6
20260903163504 82 11 1.0 3.0 0.01 1.96 0.01 64 1010.7
20260903163102 83 314 0.0 2.0 0.01 1.96 0.01 67 1012.6
20260903163003 83 128 1.0 2.0 0.01 1.96 0.01 65 1010.7
20260903162503 83 108 0.0 2.0 0.01 1.96 0.01 62 1010.7
20260903162004 82 88 0.0 2.0 0.01 1.96 0.01 67 1010.8
20260903161601 81 314 0.0 2.0 0.01 1.96 0.01 64 1012.9
20260903161504 82 292 0.0 1.0 0.01 1.96 0.01 68 1011.0
20260903161004 82 30 1.0 2.0 0.01 1.96 0.01 66 1011.0
20260903160504 82 135 1.0 5.0 0.01 1.96 0.01 69 1011.1
20260903160056 81 127 1.0 4.0 0.01 1.96 0.01 67 1013.1
20260903155504 81 4 1.0 3.0 0.00 1.95 0.00 67 1011.2
20260903155004 80 55 1.0 3.0 0.00 1.95 0.00 72 1011.2
20260903154553 80 0 0.0 4.0 0.00 1.95 0.00 73 1013.3
20260903154003 80 33 1.0 3.0 0.00 1.95 0.00 72 1011.3
20260903153504 79 213 2.0 3.0 0.00 1.95 0.00 75 1011.4
20260903153101 78 0 2.0 5.0 0.00 1.95 0.00 73 1013.4
20260903153004 79 235 2.0 5.0 0.00 1.95 0.00 75 1011.4
20260903152504 79 197 3.0 5.0 0.00 1.95 0.00 74 1011.4
20260903152004 78 205 1.0 3.0 0.00 1.95 0.00 82 1011.4
20260903151555 77 223 0.0 3.0 0.00 1.95 0.00 84 1013.3
20260903151503 77 295 1.0 2.0 0.00 1.95 0.00 85 1011.4
20260903151004 76 59 1.0 3.0 0.00 1.95 0.00 86 1011.3
20260903150503 76 250 1.0 3.0 0.00 1.95 0.00 86 1011.3
20260903150101 76 0 0.0 4.0 0.00 1.95 0.00 87 1013.3
20260903145503 76 272 1.0 2.0 0.00 1.95 0.00 90 1011.4
20260903145004 76 299 1.0 3.0 0.00 1.95 0.00 91 1011.6
20260903144601 75 164 0.0 5.0 0.00 1.95 0.00 90 1013.3
20260903144504 75 159 1.0 3.0 0.00 1.95 0.00 90 1011.5